Hurricane Symbol View the latest observations near Atlantic Tropical Depression Alberto.

Station 42002 (LLNR 1470) - WEST GULF - 207 NM East of Brownsville, TX Image indicating link to RSS feed of recent meteorological observations for station 42002


Conditions at 42002 as of
(11:10 am CDT)
1610 GMT on 06/20/2024:
     

Click on the graph icon in the table below to see a time series plot of the last five days of that observation.

5-day plot - Wind Direction Wind Direction (WDIR): E ( 100 deg true )
5-day plot - Wind Speed Wind Speed (WSPD): 21.4 kts
5-day plot - Wind Gust Wind Gust (GST): 27.2 kts
5-day plot - Atmospheric Pressure Atmospheric Pressure (PRES):29.89 in
5-day plot - Air Temperature Air Temperature (ATMP): 84.2 °F
5-day plot - Water Temperature Water Temperature (WTMP): 83.1 °F
5-day plot - Wind Speed at 10 Meters Wind Speed at 10 meters (WSPD10M): 23.3 kts
5-day plot - Wind Speed at 20 Meters Wind Speed at 20 meters (WSPD20M): 23.3 kts
5-day plot -  Wind Speed, Wind Gust and Atmospheric Pressure Combined plot of Wind Speed, Gust, and Air Pressure
Supplemental Measurements
Highest 1-minute Wind Speed
Time (CDT)5-day plot - 1-Minute Wind Speed WSPD 5-day plot - 1-Minute Wind Direction WDIR
11:02 am 23.3 kts-
Previous observations
TIME
(CDT)
5-day plot - Wind Direction
WDIR
 
5-day plot - Wind Speed
WSPD
kts
5-day plot - Wind Gust
GST
kts
5-day plot - Wave Height
WVHT
ft
5-day plot - Dominant Wave Period
DPD
sec
5-day plot - Average Wave Period
APD
sec
5-day plot - Mean Wave Direction
MWD
 
5-day plot - Atmospheric Pressure
PRES
in
5-day plot - Pressure Tendency
PTDY
in
5-day plot - Air Temperature
ATMP
°F
5-day plot - Water Temperature
WTMP
°F
5-day plot - Dew Point
DEWP
°F
5-day plot - Salinity
SAL
psu
5-day plot - Visibility
VIS
nmi
5-day plot - Tide (above MLLW)
TIDE
ft
2024-06-20 11:00 am E 21.4 29.1----29.89+0.07 84.2 83.1----
2024-06-20 10:50 am E 23.3 29.1 12.8 107.4 E29.89- 84.2 83.1----
2024-06-20 10:40 am E 21.4 29.1----29.88- 84.0 83.1----
2024-06-20 10:30 am E 21.4 27.2----29.88- 84.2 83.1----
2024-06-20 10:20 am E 21.4 27.2 12.8 107.1 E29.88- 84.2 83.1----
2024-06-20 10:10 am E 23.3 31.1 12.8-7.1 E29.88- 84.2 83.1----
2024-06-20 10:00 am E 21.4 31.1----29.87+0.08 84.2 83.1----
2024-06-20 09:50 am E 21.4 27.2 12.5 107.3 E29.87- 84.0 83.1----
2024-06-20 09:40 am E 21.4 29.1----29.86- 84.0 82.9----
2024-06-20 09:30 am E 21.4 27.2----29.86- 83.8 82.9----
2024-06-20 09:20 am E 21.4 27.2 11.8 97.0 E29.86- 83.8 82.9----
2024-06-20 09:10 am E 19.4 23.3 11.8-7.0 E29.86- 83.5 82.9----
2024-06-20 09:00 am E 19.4 27.2----29.85+0.09 83.8 82.9----
2024-06-20 08:50 am E 21.4 25.3 12.5 107.1 E29.85- 83.7 82.9----
2024-06-20 08:40 am E 21.4 27.2----29.84- 83.7 82.9----
2024-06-20 08:30 am E 21.4 27.2----29.83- 83.7 82.9----
2024-06-20 08:20 am E 21.4 27.2 11.5 96.9ESE29.83- 83.8 82.9----
2024-06-20 08:10 am E 23.3 27.2 11.5-6.9ESE29.83- 83.8 82.9----
2024-06-20 08:00 amESE 21.4 25.3----29.82+0.06 84.0 82.9----
2024-06-20 07:50 amESE 21.4 29.1 13.1 107.2 E29.82- 83.8 82.9----
2024-06-20 07:40 amESE 21.4 27.2----29.81- 84.0 82.9----
2024-06-20 07:30 amESE 23.3 29.1----29.80- 84.0 82.9----
2024-06-20 07:20 amESE 23.3 31.1 12.8 107.0 E29.80- 84.0 82.9----
2024-06-20 07:10 amESE 23.3 29.1 12.8-7.0 E29.79- 83.8 82.9----
2024-06-20 07:00 amESE 21.4 27.2----29.79+0.04 83.7 82.9----
2024-06-20 06:50 amESE 21.4 29.1 13.1 97.1ESE29.79- 83.8 82.9----
2024-06-20 06:40 am E 19.4 25.3----29.78- 83.8 82.9----
2024-06-20 06:30 am E 21.4 27.2----29.78- 83.8 82.9----
2024-06-20 06:20 am E 21.4 27.2 14.1 107.4 E29.78- 83.8 82.9----
2024-06-20 06:10 am E 23.3 29.1 14.1-7.4 E29.78- 84.0 82.9----
2024-06-20 06:00 amESE 23.3 29.1----29.77+0.03 84.0 82.9----
2024-06-20 05:50 amESE 23.3 31.1 14.8 107.3 E29.77- 84.0 82.9----
2024-06-20 05:40 amESE 23.3 31.1----29.77- 84.0 82.9----
2024-06-20 05:30 amESE 25.3 31.1----29.76- 84.2 82.9----
2024-06-20 05:20 amESE 25.3 31.1 15.1 107.3 E29.76- 84.0 82.9----
2024-06-20 05:10 amESE 23.3 31.1 15.1-7.3 E29.76- 84.2 82.9----
2024-06-20 05:00 amESE 23.3 31.1----29.76+0.01 84.2 82.9----
2024-06-20 04:50 amESE 25.3 31.1 13.5 107.1 E29.76- 84.2 82.9----
2024-06-20 04:40 amESE 25.3 33.0 13.5-7.1 E29.75- 84.2 82.9----
2024-06-20 04:30 amESE 25.3 33.0----29.75- 84.0 82.9----
2024-06-20 04:20 amESE 25.3 33.0 14.1 107.2 E29.76- 84.0 82.9----
2024-06-20 04:10 am E 25.3 35.0 14.1-7.2 E29.75- 84.2 82.9----
2024-06-20 04:00 amESE 27.2 31.1----29.75-0.01 84.2 82.9----
2024-06-20 03:50 am E 25.3 35.0 14.4 117.2 E29.75- 84.2 82.9----
2024-06-20 03:40 am E 25.3 35.0 14.4-7.2 E29.75- 84.2 82.9----
2024-06-20 03:30 am E 27.2 33.0----29.74- 84.2 82.9----
2024-06-20 03:20 am E 25.3 33.0 14.1 97.2 E29.74- 84.2 82.9----
2024-06-20 03:10 am E 25.3 35.0 14.1-7.2 E29.74- 84.2 82.9----
2024-06-20 03:00 am E 27.2 36.9----29.74-0.02 84.4 83.1----
2024-06-20 02:50 am E 27.2 33.0 14.4 117.3 E29.74- 84.2 83.1----
2024-06-20 02:40 am E 25.3 33.0----29.74- 84.2 83.1----
2024-06-20 02:30 am E 25.3 31.1----29.74- 84.2 83.1----
2024-06-20 02:20 am E 25.3 31.1 14.8 107.4 E29.74- 84.2 83.1----
2024-06-20 02:10 am E 25.3 33.0 14.8-7.4 E29.75- 84.2 83.1----
2024-06-20 02:00 am E 27.2 35.0----29.75+0.00 84.2 83.1----
2024-06-20 01:50 am E 25.3 33.0 13.5 107.0 E29.75- 84.2 83.1----
2024-06-20 01:40 am E 27.2 35.0 13.5-7.0 E29.75- 84.2 83.1----
2024-06-20 01:30 am E 27.2 35.0----29.76- 84.2 83.1----
2024-06-20 01:20 am E 27.2 33.0 13.5 117.0 E29.76- 84.0 83.1----
2024-06-20 01:10 am E 27.2 35.0----29.76- 84.0 83.1----
2024-06-20 01:00 am E 25.3 35.0----29.76+0.03 84.0 83.1----
2024-06-20 12:50 am E 25.3 31.1 14.8 97.3 E29.75- 84.0 83.1----
2024-06-20 12:40 am E 25.3 31.1----29.75- 84.0 83.1----
2024-06-20 12:30 am E 25.3 33.0----29.75- 84.0 83.1----
2024-06-20 12:20 am E 25.3 33.0 15.1 117.5 E29.75- 83.8 83.1----
2024-06-20 12:10 am E 27.2 33.0 15.1-7.5 E29.75- 84.0 83.1----
2024-06-20 12:00 am E 25.3 35.0----29.76+0.05 84.2 83.1----
2024-06-19 11:50 pm E 27.2 33.0 13.5 107.3 E29.76- 84.4 83.1----
2024-06-19 11:40 pm E 29.1 38.9----29.75- 84.4 83.1----
2024-06-19 11:30 pm E 29.1 36.9----29.75- 84.4 83.1----
2024-06-19 11:20 pm E 25.3 35.0 14.1 107.4 E29.75- 84.4 83.1----
2024-06-19 11:10 pm E 25.3 31.1 14.1-7.4 E29.75- 84.4 83.1----
2024-06-19 11:00 pm E 25.3 31.1----29.75+0.06 84.4 83.1----
2024-06-19 10:50 pm E 27.2 35.0 13.8 117.2 E29.74- 84.4 83.1----
2024-06-19 10:40 pm E 27.2 36.9----29.74- 84.2 83.1----
2024-06-19 10:30 pm E 25.3 31.1----29.74- 84.0 83.1----
2024-06-19 10:20 pm E 29.1 38.9 13.1 87.2ESE29.74- 83.1-----
2024-06-19 10:10 pm E 27.2 36.9 13.1-7.2ESE29.73- 84.2 83.3----
2024-06-19 10:00 pm E 23.3 33.0----29.73+0.06 84.0 83.3----
2024-06-19 09:50 pm E 25.3 33.0 13.5 97.3ESE29.72- 83.8 83.3----
2024-06-19 09:40 pm E 23.3 31.1----29.72- 83.5 83.3----
2024-06-19 09:30 pm E 25.3 31.1----29.72- 83.1 83.3----
2024-06-19 09:20 pm E 27.2 38.9 13.8 117.4 E29.71- 83.1 83.3----
2024-06-19 09:10 pm E 25.3 31.1 13.8-7.4 E29.71- 84.4 83.3----
2024-06-19 09:00 pm E 25.3 35.0----29.70+0.06 84.2 83.3----
2024-06-19 08:50 pm E 23.3 31.1 14.4 97.6ESE29.70- 84.0 83.3----
2024-06-19 08:40 pm E 23.3 31.1----29.70- 83.1 83.3----
2024-06-19 08:30 pm E 25.3 33.0----29.70- 84.6 83.3----
2024-06-19 08:20 pm E 23.3 29.1 14.4 97.4ESE29.69- 84.6 83.3----
2024-06-19 08:10 pmESE 25.3 31.1 14.4-7.4ESE29.69- 84.6 83.3----
2024-06-19 08:00 pm E 21.4 29.1----29.69+0.06 84.7 83.3----
2024-06-19 07:50 pmESE 25.3 31.1 14.8 117.6 E29.69- 84.7 83.3----
2024-06-19 07:40 pm E 25.3 31.1----29.68- 84.6 83.3----
2024-06-19 07:30 pm E 23.3 31.1----29.68- 84.6 83.3----
2024-06-19 07:20 pm E 23.3 31.1 15.1 117.6 E29.68- 84.6 83.3----
2024-06-19 07:10 pm E 25.3 33.0 15.1-7.6 E29.67- 84.7 83.3----
2024-06-19 07:00 pm E 27.2 35.0----29.67+0.04 84.9 83.5----
2024-06-19 06:50 pm E 27.2 35.0 13.8 117.4 E29.67- 84.7 83.5----
2024-06-19 06:40 pm E 27.2 33.0----29.66- 84.6 83.5----
2024-06-19 06:30 pm E 27.2 33.0----29.65- 84.7 83.5----
2024-06-19 06:20 pm E 27.2 36.9 14.8 117.8 E29.65- 84.7 83.5----
2024-06-19 06:10 pm E 27.2 35.0 14.8-7.8 E29.65- 84.6 83.5----
2024-06-19 06:00 pm E 27.2 36.9----29.64+0.00 84.6 83.5----
2024-06-19 05:50 pm E 25.3 33.0 14.4 117.7 E29.64- 84.6 83.5----
2024-06-19 05:40 pm E 25.3 33.0----29.64- 84.6 83.5----
2024-06-19 05:30 pm E 25.3 36.9----29.63- 84.6 83.5----
2024-06-19 05:20 pm E 27.2 35.0 12.8 117.5 E29.63- 84.7 83.5----
2024-06-19 05:10 pm E 29.1 35.0 12.8-7.5 E29.62- 84.7 83.5----
2024-06-19 05:00 pm E 27.2 35.0----29.62+0.00 84.6 83.5----
2024-06-19 04:50 pm E 25.3 35.0 13.8 117.7 E29.63- 84.4 83.5----
2024-06-19 04:40 pm E 25.3 33.0----29.63- 84.4 83.5----
2024-06-19 04:30 pm E 25.3 33.0----29.63- 84.6 83.5----
2024-06-19 04:20 pm E 25.3 31.1 12.8 117.3 E29.64- 84.9 83.5----
2024-06-19 04:10 pm E 23.3 31.1 12.8-7.3 E29.63- 84.9 83.5----
2024-06-19 04:00 pm E 25.3 33.0----29.64-0.01 84.9 83.5----
2024-06-19 03:50 pm E 25.3 33.0 13.5 117.6 E29.64- 84.7 83.5----
2024-06-19 03:40 pm E 25.3 33.0 13.5-7.6 E29.64- 84.7 83.5----
2024-06-19 03:30 pm E 27.2 35.0----29.64- 84.6 83.5----
2024-06-19 03:20 pm E 25.3 31.1 12.5 117.5 E29.64- 84.4 83.5----
2024-06-19 03:10 pm E 25.3 31.1 12.5-7.5 E29.64- 84.2 83.5----
2024-06-19 03:00 pm E 25.3 33.0----29.64-0.01 84.2 83.5----
2024-06-19 02:50 pm E 23.3 31.1 13.5 117.7 E29.63- 84.6 83.5----
2024-06-19 02:40 pm E 25.3 33.0 13.5-7.7 E29.63- 84.6 83.7----
2024-06-19 02:30 pm E 25.3 33.0----29.63- 84.6 83.7----
2024-06-19 02:20 pm E 25.3 31.1 13.5 127.6 E29.63- 84.6 83.5----
2024-06-19 02:10 pm E 23.3 31.1 13.5-7.6 E29.63- 84.6 83.5----
2024-06-19 02:00 pm E 25.3 31.1----29.63-0.01 84.6 83.5----
2024-06-19 01:50 pm E 25.3 31.1 12.8 117.4 E29.63- 84.4 83.5----
2024-06-19 01:40 pm E 25.3 31.1----29.63- 84.2 83.5----
2024-06-19 01:30 pm E 23.3 29.1----29.64- 84.0 83.5----
2024-06-19 01:20 pm E 23.3 31.1 13.1 117.5ESE29.64- 83.8 83.5----
2024-06-19 01:10 pm E 23.3 31.1 13.1-7.5ESE29.65- 83.5 83.5----
2024-06-19 01:00 pm E 23.3 31.1----29.65+0.03 84.0 83.5----
2024-06-19 12:50 pm E 23.3 29.1 13.1 117.6 E29.65- 84.6 83.5----
2024-06-19 12:40 pm E 23.3 29.1----29.65- 84.6 83.5----
2024-06-19 12:30 pm E 23.3 29.1----29.65- 84.6 83.5----
2024-06-19 12:20 pm E 23.3 29.1 12.8 117.4 E29.64- 84.4 83.5----
2024-06-19 12:10 pm E 23.3 31.1 12.8-7.4 E29.65- 84.4 83.5----
2024-06-19 12:00 pm E 23.3 29.1----29.65+0.04 84.4 83.5----
2024-06-19 11:50 am E 23.3 31.1 14.4 117.7 E29.65- 84.4 83.5----
2024-06-19 11:40 am E 23.3 29.1----29.65- 84.4 83.5----
2024-06-19 11:30 am E 23.3 31.1----29.65- 84.4 83.5----
2024-06-19 11:20 am E 23.3 31.1 16.4 118.0 E29.65- 84.4 83.5----
2024-06-19 11:10 am E 25.3 33.0 16.4-8.0 E29.64- 84.2 83.5----
2024-06-19 11:00 am E 23.3 31.1----29.64+0.06 84.4 83.5----
2024-06-19 10:50 am E 25.3 33.0 15.1 117.8 E29.64- 84.4 83.5----

Detailed Wave Summary
for 42002 as of (10:40 am CDT)
1540 GMT on 06/20/2024:

These wave data are displayed in rounded times.

     

Click on the graph icon in the table below to see a time series plot of the last five days of that observation.

5-day plot - Significant Wave Height Significant Wave Height (WVHT): 12.8 ft
5-day plot - Swell Height Swell Height (SwH): 10.5 ft
5-day plot - Swell Period Swell Period (SwP): 10.0 sec
5-day plot - Swell Direction Swell Direction (SwD): E
5-day plot - Wind Wave Height Wind Wave Height (WWH): 7.5 ft
5-day plot - Wind Wave Period Wind Wave Period (WWP): 7.7 sec
5-day plot - Wind Wave Direction Wind Wave Direction (WWD): E
5-day plot - Wave Steepness Wave Steepness (STEEPNESS): AVERAGE
5-day plot - Average Wave Period Average Wave Period (APD): 7.4 sec
Previous observations
TIME
(CDT)
5-day plot - Wave Height
WVHT
ft
5-day plot - Swell Height
SwH
ft
5-day plot - Swell Period
SwP
sec
5-day plot - Swell Direction
SwD
 
5-day plot - Wind Wave Height
WWH
ft
5-day plot - Wind Wave Period
WWP
sec
5-day plot - Wind Wave Direction
WWD
 
5-day plot - Wave Steepness
STEEPNESS
 
5-day plot - Average Wave Period
APD
sec
2024-06-20 10:10 am 12.8 9.2 10.0 E 8.5 6.2 ESE AVERAGE 7.1
2024-06-20 09:40 am 12.5 9.8 10.0 E 7.9 7.1 ESE AVERAGE 7.3
2024-06-20 09:10 am 11.8 6.2 19.0NNE 9.8 9.1 E STEEP 7.0
2024-06-20 08:40 am 12.5 9.2 10.0 E 8.5 6.7 ESE AVERAGE 7.1
2024-06-20 08:10 am 11.5 7.9 9.1ESE 8.5 6.2 ESE STEEP 6.9
2024-06-20 07:40 am 13.1 0.0-- 13.1 10.0 E AVERAGE 7.2
2024-06-20 07:10 am 12.8 4.3 16.0 NW 12.1 10.0 E AVERAGE 7.0
2024-06-20 06:40 am 13.1 0.0-- 13.1 9.1 ESE STEEP 7.1
2024-06-20 06:10 am 14.1 9.2 10.0 E 10.5 6.7 ESE STEEP 7.4
2024-06-20 05:40 am 14.8 9.8 10.0 E 10.8 8.3 ESE STEEP 7.3
2024-06-20 05:10 am 15.1 9.2 10.0 E 11.8 6.7 ESE STEEP 7.3
2024-06-20 04:40 am 13.5 2.6 17.4ESE 13.1 10.0 E STEEP 7.1
2024-06-20 04:10 am 14.1 2.6 17.4 E 13.8 10.0 E STEEP 7.2
2024-06-20 03:40 am 14.4 7.9 10.8 E 12.1 6.2 E AVERAGE 7.2
2024-06-20 03:10 am 14.1 3.6 16.0 SE 13.8 9.1 E STEEP 7.2
2024-06-20 02:40 am 14.4 8.9 10.8 E 11.2 5.9 E AVERAGE 7.3
2024-06-20 02:10 am 14.8 0.0-- 14.8 10.0 E STEEP 7.4
2024-06-20 01:40 am 13.5 0.0-- 13.5 10.0 E STEEP 7.0
2024-06-20 01:10 am 13.5 5.6 10.8 E 12.5 7.7 ESE AVERAGE 7.0
2024-06-20 12:40 am 14.8 0.0-- 14.8 9.1 E STEEP 7.3
2024-06-20 12:10 am 15.1 9.2 10.8 E 11.8 6.2 ESE AVERAGE 7.5
2024-06-19 11:40 pm 13.5 0.0-- 13.5 10.0 E STEEP 7.3
2024-06-19 11:10 pm 14.1 0.0-- 14.1 10.0 E STEEP 7.4
2024-06-19 10:40 pm 13.8 0.0-- 13.8 10.8 E AVERAGE 7.2
2024-06-19 10:10 pm 13.1 7.2 11.4 E 11.2 8.3 ESE STEEP 7.2
2024-06-19 09:40 pm 13.5 0.0-- 13.5 9.1 ESE STEEP 7.3
2024-06-19 09:10 pm 13.8 8.9 11.4 E 10.5 9.1 ESE AVERAGE 7.4
2024-06-19 08:40 pm 14.4 5.2 12.1 E 13.5 9.1 ESE STEEP 7.6
2024-06-19 08:10 pm 14.4 0.0-- 14.4 9.1 ESE STEEP 7.4
2024-06-19 07:40 pm 14.8 0.0-- 14.8 10.8 E AVERAGE 7.6
2024-06-19 07:10 pm 15.1 6.2 11.4 E 13.8 9.1 E AVERAGE 7.6
2024-06-19 06:40 pm 13.8 7.2 10.8 E 11.8 9.1 E AVERAGE 7.4
2024-06-19 06:10 pm 14.8 10.8 11.4 E 9.8 8.3 E AVERAGE 7.8
2024-06-19 05:40 pm 14.4 8.2 10.8 E 11.8 7.1 ESE AVERAGE 7.7
2024-06-19 05:10 pm 12.8 8.9 11.4 E 9.2 9.1 E AVERAGE 7.5
2024-06-19 04:40 pm 13.8 10.2 11.4 E 9.2 7.1 ESE AVERAGE 7.7
2024-06-19 04:10 pm 12.8 7.5 10.8 E 10.5 7.1 E AVERAGE 7.3
2024-06-19 03:40 pm 13.5 7.5 11.4 E 11.2 8.3 E AVERAGE 7.6
2024-06-19 03:10 pm 12.5 8.9 11.4 E 8.9 7.1 E AVERAGE 7.5
2024-06-19 02:40 pm 13.5 10.5 11.4 E 8.9 7.7 ESE AVERAGE 7.7
2024-06-19 02:10 pm 13.5 9.8 12.1 E 9.2 7.1 ESE AVERAGE 7.6
2024-06-19 01:40 pm 12.8 9.2 11.4 E 8.9 6.7 E AVERAGE 7.4
2024-06-19 01:10 pm 13.1 9.5 10.8ESE 8.9 8.3 E AVERAGE 7.5
2024-06-19 12:40 pm 13.1 10.5 10.8 E 7.9 5.3 E AVERAGE 7.6
2024-06-19 12:10 pm 12.8 10.2 11.4 E 7.9 7.1 E AVERAGE 7.4
2024-06-19 11:40 am 14.4 10.8 10.8 E 9.5 7.7 E AVERAGE 7.7
2024-06-19 11:10 am 16.4 11.8 10.8 E 11.2 6.7 ESE AVERAGE 8.0

Plot of wave energy versus frequency (and period)